When you browse on this site, cookies collect data to enhance your experience and personalize the content and advertising you see.
Visit our Privacy Policy to learn more. By continuing to use the site, you agree to this use of cookies and data.
  • In Germany
  • List of Countries
  • For 7 days
  • Water Temperature
  • Satellite Maps
  • Weather Map
  • Weather Widgets
  • user-avatar
    Login

    Hourly Weather Bandar Seri Begawan

    Today, 16 December, Sunday

    Time Temperature Precipitation Wind Pressure Humidity
    00:00 +28°C° 0.2 mm 1 mps 756 mmHg 89%
    01:00 +27°C° 0.2 mm 1 mps 756 mmHg 89%
    02:00 +27°C° 0 mm 1 mps 756 mmHg 90%
    03:00 +27°C° 0 mm 1 mps 756 mmHg 90%
    04:00 +27°C° 0 mm 2 mps 756 mmHg 90%
    05:00 +27°C° 0 mm 2 mps 756 mmHg 90%
    06:00 +27°C° 0 mm 2 mps 756 mmHg 88%
    07:00 +28°C° 0 mm 2 mps 756 mmHg 85%
    08:00 +29°C° 0 mm 2 mps 757 mmHg 83%
    09:00 +30°C° 0.4 mm 2 mps 757 mmHg 77%
    10:00 +32°C° 0.4 mm 2 mps 757 mmHg 71%
    11:00 +33°C° 0.4 mm 1 mps 756 mmHg 64%
    12:00 +34°C° 0.2 mm 2 mps 756 mmHg 65%
    13:00 +34°C° 0.2 mm 2 mps 755 mmHg 65%
    14:00 +34°C° 0.2 mm 2 mps 755 mmHg 65%
    15:00 +34°C° 0.7 mm 2 mps 755 mmHg 70%
    16:00 +32°C° 0.7 mm 2 mps 754 mmHg 76%
    17:00 +31°C° 0.7 mm 2 mps 754 mmHg 81%
    18:00 +30°C° 0.9 mm 2 mps 755 mmHg 83%
    19:00 +29°C° 0.9 mm 1 mps 755 mmHg 86%
    20:00 +28°C° 0.9 mm 1 mps 756 mmHg 88%
    21:00 +28°C° 0.3 mm 1 mps 756 mmHg 89%
    22:00 +27°C° 0.3 mm 1 mps 756 mmHg 89%
    23:00 +27°C° 0.3 mm 1 mps 757 mmHg 90%

    Tomorrow, 17 December, Monday

    Time Temperature Precipitation Wind Pressure Humidity
    00:00 +27°C° 0.3 mm 1 mps 757 mmHg 90%
    01:00 +27°C° 0.3 mm 1 mps 756 mmHg 91%
    02:00 +27°C° 0.3 mm 1 mps 756 mmHg 91%
    03:00 +27°C° 0.2 mm 1 mps 756 mmHg 91%
    04:00 +26°C° 0.2 mm 1 mps 756 mmHg 91%
    05:00 +26°C° 0.2 mm 1 mps 756 mmHg 91%
    06:00 +27°C° 0.1 mm 1 mps 756 mmHg 89%
    07:00 +28°C° 0.1 mm 1 mps 757 mmHg 87%
    08:00 +28°C° 0.1 mm 1 mps 757 mmHg 84%
    09:00 +30°C° 0 mm 1 mps 757 mmHg 75%
    10:00 +32°C° 0 mm 1 mps 757 mmHg 65%
    11:00 +32°C° 0 mm 0 mps 757 mmHg 56%
    12:00 +34°C° 0.2 mm 1 mps 757 mmHg 59%
    13:00 +33°C° 0.2 mm 1 mps 756 mmHg 62%
    14:00 +34°C° 0.2 mm 2 mps 755 mmHg 65%
    15:00 +32°C° 0.5 mm 2 mps 755 mmHg 69%
    16:00 +31°C° 0.5 mm 2 mps 755 mmHg 73%
    17:00 +31°C° 0.5 mm 2 mps 755 mmHg 77%
    18:00 +30°C° 0.3 mm 1 mps 756 mmHg 80%
    19:00 +29°C° 0.3 mm 1 mps 756 mmHg 84%
    20:00 +26°C° 0.3 mm 0 mps 757 mmHg 87%
    21:00 +26°C° 0 mm 0 mps 757 mmHg 88%
    22:00 +26°C° 0 mm 0 mps 757 mmHg 89%
    23:00 +27°C° 0 mm 1 mps 758 mmHg 89%

    Day after tomorrow, 18 December, Tuesday

    Time Temperature Precipitation Wind Pressure Humidity
    00:00 +27°C° 0 mm 1 mps 757 mmHg 90%
    01:00 +27°C° 0 mm 1 mps 757 mmHg 90%
    02:00 +27°C° 0 mm 1 mps 756 mmHg 91%
    03:00 +27°C° 0 mm 1 mps 756 mmHg 91%
    04:00 +26°C° 0 mm 1 mps 756 mmHg 91%
    05:00 +26°C° 0 mm 1 mps 756 mmHg 91%
    06:00 +27°C° 0.1 mm 1 mps 756 mmHg 89%
    07:00 +27°C° 0.1 mm 1 mps 756 mmHg 87%
    08:00 +28°C° 0.1 mm 1 mps 757 mmHg 84%
    09:00 +30°C° 0 mm 1 mps 757 mmHg 75%
    10:00 +32°C° 0 mm 1 mps 757 mmHg 66%
    11:00 +32°C° 0 mm 0 mps 757 mmHg 57%
    12:00 +34°C° 0 mm 1 mps 756 mmHg 57%
    13:00 +34°C° 0 mm 1 mps 756 mmHg 58%
    14:00 +34°C° 0 mm 2 mps 755 mmHg 59%
    15:00 +32°C° 0.2 mm 2 mps 755 mmHg 65%
    16:00 +32°C° 0.2 mm 2 mps 754 mmHg 71%
    17:00 +31°C° 0.2 mm 2 mps 754 mmHg 76%
    18:00 +30°C° 0 mm 2 mps 755 mmHg 80%
    19:00 +29°C° 0 mm 2 mps 755 mmHg 83%
    20:00 +28°C° 0 mm 2 mps 756 mmHg 86%
    21:00 +28°C° 0 mm 2 mps 757 mmHg 86%
    22:00 +28°C° 0 mm 2 mps 757 mmHg 87%
    23:00 +28°C° 0 mm 2 mps 757 mmHg 87%

    19 December, Wednesday

    Time Temperature Precipitation Wind Pressure Humidity
    00:00 +27°C° 0 mm 1 mps 757 mmHg 88%
    01:00 +27°C° 0 mm 1 mps 756 mmHg 89%
    02:00 +27°C° 0 mm 1 mps 756 mmHg 90%
    03:00 +27°C° 0 mm 1 mps 756 mmHg 90%
    04:00 +27°C° 0 mm 1 mps 755 mmHg 91%
    05:00 +27°C° 0 mm 1 mps 755 mmHg 91%
    06:00 +27°C° 0 mm 1 mps 756 mmHg 88%
    07:00 +28°C° 0 mm 1 mps 756 mmHg 85%
    08:00 +28°C° 0 mm 1 mps 757 mmHg 82%
    09:00 +31°C° 0 mm 1 mps 757 mmHg 74%
    10:00 +33°C° 0 mm 1 mps 756 mmHg 65%
    11:00 +35°C° 0 mm 1 mps 756 mmHg 56%
    12:00 +34°C° 0 mm 1 mps 756 mmHg 57%
    13:00 +35°C° 0 mm 2 mps 755 mmHg 58%
    14:00 +35°C° 0 mm 3 mps 754 mmHg 59%
    15:00 +34°C° 0.2 mm 3 mps 754 mmHg 64%
    16:00 +33°C° 0.2 mm 3 mps 754 mmHg 69%
    17:00 +31°C° 0.2 mm 3 mps 753 mmHg 74%
    18:00 +30°C° 0 mm 3 mps 754 mmHg 78%
    19:00 +29°C° 0 mm 2 mps 755 mmHg 82%
    20:00 +29°C° 0 mm 2 mps 756 mmHg 86%
    21:00 +28°C° 0.1 mm 2 mps 756 mmHg 87%
    22:00 +28°C° 0.1 mm 2 mps 756 mmHg 88%
    23:00 +28°C° 0.1 mm 2 mps 757 mmHg 89%

    20 December, Thursday

    Time Temperature Precipitation Wind Pressure Humidity
    00:00 +28°C° 0.8 mm 2 mps 756 mmHg 89%
    01:00 +28°C° 0.8 mm 2 mps 756 mmHg 90%
    02:00 +27°C° 0.8 mm 2 mps 755 mmHg 90%
    03:00 +27°C° 0.7 mm 2 mps 755 mmHg 90%
    04:00 +27°C° 0.7 mm 2 mps 755 mmHg 90%
    05:00 +27°C° 0.7 mm 2 mps 755 mmHg 90%
    06:00 +27°C° 0.2 mm 2 mps 755 mmHg 89%
    07:00 +28°C° 0.2 mm 2 mps 756 mmHg 88%
    08:00 +28°C° 0.2 mm 2 mps 756 mmHg 87%
    09:00 +29°C° 0.1 mm 2 mps 756 mmHg 81%
    10:00 +31°C° 0.1 mm 2 mps 756 mmHg 75%
    11:00 +32°C° 0.1 mm 2 mps 756 mmHg 68%
    12:00 +32°C° 0.6 mm 2 mps 755 mmHg 68%
    13:00 +34°C° 0.6 mm 2 mps 755 mmHg 68%
    14:00 +34°C° 0.6 mm 2 mps 754 mmHg 67%
    15:00 +32°C° 1.4 mm 2 mps 754 mmHg 72%
    16:00 +31°C° 1.4 mm 2 mps 754 mmHg 77%
    17:00 +30°C° 1.4 mm 2 mps 753 mmHg 82%
    18:00 +29°C° 1.6 mm 2 mps 754 mmHg 84%
    19:00 +29°C° 1.6 mm 2 mps 755 mmHg 87%
    20:00 +28°C° 1.6 mm 2 mps 755 mmHg 90%
    21:00 +28°C° 0.4 mm 2 mps 756 mmHg 91%
    22:00 +27°C° 0.4 mm 2 mps 756 mmHg 91%
    23:00 +27°C° 0.4 mm 1 mps 756 mmHg 92%

    21 December, Friday

    Time Temperature Precipitation Wind Pressure Humidity
    00:00 +27°C° 0.3 mm 1 mps 755 mmHg 92%
    01:00 +27°C° 0.3 mm 1 mps 755 mmHg 92%
    02:00 +27°C° 0.3 mm 1 mps 754 mmHg 93%
    03:00 +27°C° 0.3 mm 1 mps 754 mmHg 93%
    04:00 +27°C° 0.3 mm 1 mps 754 mmHg 93%
    05:00 +27°C° 0.3 mm 1 mps 754 mmHg 93%
    06:00 +27°C° 0.2 mm 1 mps 755 mmHg 91%
    07:00 +27°C° 0.2 mm 1 mps 755 mmHg 90%
    08:00 +27°C° 0.2 mm 1 mps 755 mmHg 89%
    09:00 +29°C° 0.1 mm 1 mps 755 mmHg 82%
    10:00 +30°C° 0.1 mm 1 mps 755 mmHg 75%
    11:00 +32°C° 0.1 mm 2 mps 755 mmHg 68%
    12:00 +31°C° 1 mm 1 mps 755 mmHg 71%
    13:00 +31°C° 1 mm 1 mps 754 mmHg 74%
    14:00 +31°C° 1 mm 1 mps 753 mmHg 77%
    15:00 +30°C° 1.8 mm 2 mps 753 mmHg 80%
    16:00 +30°C° 1.8 mm 2 mps 753 mmHg 83%
    17:00 +29°C° 1.8 mm 2 mps 753 mmHg 87%
    18:00 +28°C° 1.4 mm 2 mps 754 mmHg 88%
    19:00 +28°C° 1.4 mm 2 mps 755 mmHg 89%
    20:00 +27°C° 1.4 mm 2 mps 755 mmHg 90%
    21:00 +27°C° 1.2 mm 2 mps 756 mmHg 90%
    22:00 +27°C° 1.2 mm 2 mps 756 mmHg 91%
    23:00 +27°C° 1.2 mm 2 mps 756 mmHg 91%
    Show more